Time,TemperatureF,DewpointF,PressureIn,WindDirection,WindDirectionDegrees,WindSpeedMPH,WindSpeedGustMPH,Humidity,HourlyPrecipIn,Conditions,Clouds,dailyrainin,SoftwareType,DateUTC
2014-01-11 00:12:00,18.0,16.0,29.45,West,271,5.0,8.0,91,0.00,,,0.00,,2014-01-11 06:12:00,
2014-01-11 00:22:00,18.0,16.0,29.45,WNW,286,5.0,10.0,91,0.00,,,0.00,,2014-01-11 06:22:00,
2014-01-11 00:42:00,18.0,16.0,29.45,West,269,5.0,10.0,91,0.00,,,0.00,,2014-01-11 06:42:00,
2014-01-11 00:52:00,18.0,16.0,29.46,WNW,298,6.0,10.0,90,0.00,,,0.00,,2014-01-11 06:52:00,
2014-01-11 01:12:00,17.0,15.0,29.46,West,275,4.0,9.0,90,0.00,,,0.00,,2014-01-11 07:12:00,
2014-01-11 01:22:00,17.0,14.0,29.46,NW,307,5.0,9.0,89,0.00,,,0.00,,2014-01-11 07:22:00,
2014-01-11 01:42:00,17.0,15.0,29.46,WNW,295,9.0,9.0,90,0.00,,,0.00,,2014-01-11 07:42:00,
2014-01-11 01:52:00,17.0,15.0,29.46,WNW,296,4.0,10.0,90,0.00,,,0.00,,2014-01-11 07:52:00,
2014-01-11 02:12:00,17.0,15.0,29.47,WNW,299,6.0,10.0,90,0.00,,,0.00,,2014-01-11 08:12:00,
2014-01-11 02:21:00,17.0,15.0,29.47,WNW,298,5.0,9.0,90,0.00,,,0.00,,2014-01-11 08:21:00,
2014-01-11 02:42:00,16.0,14.0,29.48,WNW,292,5.0,9.0,90,0.00,,,0.00,,2014-01-11 08:42:00,
2014-01-11 02:52:00,16.0,14.0,29.48,West,273,7.0,14.0,90,0.00,,,0.00,,2014-01-11 08:52:00,
2014-01-11 03:11:00,16.0,13.0,29.48,West,280,3.0,10.0,89,0.00,,,0.00,,2014-01-11 09:11:00,
2014-01-11 03:22:00,16.0,13.0,29.49,WNW,300,4.0,6.0,89,0.00,,,0.00,,2014-01-11 09:22:00,
2014-01-11 03:44:00,15.0,12.0,29.49,WNW,299,3.0,7.0,89,0.00,,,0.00,,2014-01-11 09:44:00,
2014-01-11 03:53:00,15.0,12.0,29.50,WNW,284,4.0,8.0,89,0.00,,,0.00,,2014-01-11 09:53:00,
2014-01-11 04:23:00,15.0,13.0,29.50,NW,315,5.0,9.0,91,0.00,,,0.00,,2014-01-11 10:23:00,
2014-01-11 04:43:00,16.0,14.0,29.51,NW,305,5.0,11.0,91,0.00,,,0.00,,2014-01-11 10:43:00,
2014-01-11 04:53:00,16.0,14.0,29.51,NW,304,4.0,10.0,91,0.00,,,0.00,,2014-01-11 10:53:00,
2014-01-11 05:12:00,16.0,14.0,29.51,WNW,298,3.0,7.0,92,0.00,,,0.00,,2014-01-11 11:12:00,
2014-01-11 05:22:00,17.0,15.0,29.52,WNW,286,3.0,7.0,92,0.00,,,0.00,,2014-01-11 11:22:00,
2014-01-11 05:42:00,17.0,15.0,29.51,NW,305,3.0,6.0,92,0.00,,,0.00,,2014-01-11 11:42:00,
2014-01-11 05:52:00,18.0,16.0,29.52,WNW,295,4.0,7.0,92,0.00,,,0.00,,2014-01-11 11:52:00,
2014-01-11 06:11:00,18.0,16.0,29.52,WNW,294,3.0,8.0,92,0.00,,,0.00,,2014-01-11 12:11:00,
2014-01-11 06:22:00,18.0,16.0,29.52,WNW,285,3.0,7.0,92,0.00,,,0.00,,2014-01-11 12:22:00,
2014-01-11 06:42:00,19.0,17.0,29.53,West,280,1.0,7.0,93,0.00,,,0.00,,2014-01-11 12:42:00,
2014-01-11 06:53:00,19.0,17.0,29.52,WNW,292,2.0,5.0,93,0.00,,,0.00,,2014-01-11 12:53:00,
2014-01-11 07:11:00,19.0,17.0,29.52,WNW,296,3.0,4.0,92,0.00,,,0.00,,2014-01-11 13:11:00,
2014-01-11 07:22:00,19.0,17.0,29.52,NW,304,1.0,5.0,92,0.00,,,0.00,,2014-01-11 13:22:00,
2014-01-11 07:52:00,19.0,17.0,29.52,NW,317,2.0,5.0,92,0.00,,,0.00,,2014-01-11 13:52:00,
2014-01-11 08:22:00,19.0,17.0,29.52,NW,322,1.0,5.0,92,0.00,,,0.00,,2014-01-11 14:22:00,
2014-01-11 08:42:00,19.0,17.0,29.53,NW,306,1.0,4.0,92,0.00,,,0.00,,2014-01-11 14:42:00,
2014-01-11 08:52:00,19.0,17.0,29.53,NW,306,1.0,3.0,92,0.00,,,0.00,,2014-01-11 14:52:00,
2014-01-11 09:22:00,19.0,17.0,29.54,NNW,329,4.0,5.0,92,0.00,,,0.00,,2014-01-11 15:22:00,
2014-01-11 09:43:00,19.0,17.0,29.54,NW,325,0.0,5.0,92,0.00,,,0.00,,2014-01-11 15:43:00,
2014-01-11 09:54:00,19.0,17.0,29.55,NW,325,0.0,2.0,92,0.00,,,0.00,,2014-01-11 15:54:00,
2014-01-11 10:23:00,20.0,18.0,29.55,WSW,252,1.0,3.0,92,0.00,,,0.00,,2014-01-11 16:23:00,
2014-01-11 10:42:00,20.0,18.0,29.55,WSW,244,3.0,4.0,93,0.00,,,0.00,,2014-01-11 16:42:00,
2014-01-11 10:53:00,20.0,18.0,29.55,SW,221,2.0,5.0,93,0.00,,,0.00,,2014-01-11 16:53:00,
2014-01-11 11:22:00,21.0,19.0,29.55,WSW,244,3.0,8.0,93,0.00,,,0.00,,2014-01-11 17:22:00,
2014-01-11 11:42:00,21.0,19.0,29.55,West,263,0.0,6.0,92,0.00,,,0.00,,2014-01-11 17:42:00,
2014-01-11 11:52:00,21.0,19.0,29.55,SW,229,2.0,8.0,92,0.00,,,0.00,,2014-01-11 17:52:00,
2014-01-11 12:12:00,22.0,20.0,29.54,SW,217,2.0,7.0,92,0.00,,,0.00,,2014-01-11 18:12:00,
2014-01-11 12:22:00,22.0,20.0,29.54,WSW,244,3.0,6.0,92,0.00,,,0.00,,2014-01-11 18:22:00,
2014-01-11 12:42:00,22.0,20.0,29.53,WSW,252,2.0,7.0,92,0.00,,,0.00,,2014-01-11 18:42:00,
2014-01-11 12:52:00,22.0,20.0,29.52,WSW,240,5.0,8.0,92,0.00,,,0.00,,2014-01-11 18:52:00,
2014-01-11 13:23:00,23.0,21.0,29.51,WNW,294,0.0,4.0,91,0.00,,,0.00,,2014-01-11 19:23:00,
2014-01-11 13:52:00,23.0,21.0,29.51,WNW,298,4.0,7.0,90,0.00,,,0.00,,2014-01-11 19:52:00,
2014-01-11 14:11:00,24.0,22.0,29.50,West,266,0.0,5.0,90,0.00,,,0.00,,2014-01-11 20:11:00,
2014-01-11 14:22:00,24.0,21.0,29.50,West,261,1.0,2.0,89,0.00,,,0.00,,2014-01-11 20:22:00,
2014-01-11 14:42:00,24.0,21.0,29.50,West,271,1.0,4.0,89,0.00,,,0.00,,2014-01-11 20:42:00,
2014-01-11 14:52:00,24.0,21.0,29.49,WSW,254,1.0,3.0,89,0.00,,,0.00,,2014-01-11 20:52:00,
2014-01-11 15:12:00,24.0,21.0,29.50,WSW,254,1.0,4.0,89,0.00,,,0.00,,2014-01-11 21:12:00,
2014-01-11 15:22:00,24.0,21.0,29.52,WSW,239,3.0,5.0,89,0.00,,,0.00,,2014-01-11 21:22:00,
2014-01-11 15:44:00,23.0,20.0,29.52,West,265,1.0,4.0,89,0.00,,,0.00,,2014-01-11 21:44:00,
2014-01-11 15:53:00,23.0,20.0,29.52,SW,236,1.0,4.0,89,0.00,,,0.00,,2014-01-11 21:53:00,
2014-01-11 16:12:00,23.0,20.0,29.51,WSW,248,0.0,2.0,89,0.00,,,0.00,,2014-01-11 22:12:00,
2014-01-11 16:23:00,23.0,20.0,29.51,WSW,254,1.0,4.0,89,0.00,,,0.00,,2014-01-11 22:23:00,
2014-01-11 16:43:00,23.0,20.0,29.52,SW,220,0.0,4.0,89,0.00,,,0.00,,2014-01-11 22:43:00,
2014-01-11 16:52:00,23.0,20.0,29.51,SSW,197,3.0,4.0,89,0.00,,,0.00,,2014-01-11 22:52:00,
2014-01-11 17:12:00,23.0,20.0,29.52,SSW,203,4.0,6.0,89,0.00,,,0.00,,2014-01-11 23:12:00,
2014-01-11 17:22:00,23.0,20.0,29.51,South,185,5.0,6.0,89,0.00,,,0.00,,2014-01-11 23:22:00,
2014-01-11 17:43:00,23.0,20.0,29.50,SSE,164,4.0,6.0,89,0.00,,,0.00,,2014-01-11 23:43:00,
2014-01-11 17:53:00,22.0,19.0,29.49,South,182,2.0,6.0,89,0.00,,,0.00,,2014-01-11 23:53:00,
2014-01-11 18:11:00,22.0,19.0,29.49,SE,146,2.0,6.0,89,0.00,,,0.00,,2014-01-12 00:11:00,
2014-01-11 18:22:00,22.0,20.0,29.49,SSE,156,2.0,6.0,90,0.00,,,0.00,,2014-01-12 00:22:00,
2014-01-11 18:42:00,22.0,20.0,29.48,SSE,159,5.0,8.0,90,0.00,,,0.00,,2014-01-12 00:42:00,
2014-01-11 18:52:00,22.0,20.0,29.47,SSE,147,3.0,5.0,90,0.00,,,0.00,,2014-01-12 00:52:00,
2014-01-11 19:22:00,21.0,19.0,29.46,South,190,5.0,8.0,90,0.00,,,0.00,,2014-01-12 01:22:00,
2014-01-11 19:42:00,21.0,19.0,29.44,SSE,159,2.0,9.0,90,0.00,,,0.00,,2014-01-12 01:42:00,
2014-01-11 19:52:00,21.0,19.0,29.45,South,190,6.0,8.0,90,0.00,,,0.00,,2014-01-12 01:52:00,
2014-01-11 20:11:00,21.0,19.0,29.43,South,187,4.0,10.0,91,0.00,,,0.00,,2014-01-12 02:11:00,
2014-01-11 20:22:00,21.0,19.0,29.42,SSE,159,2.0,8.0,91,0.00,,,0.00,,2014-01-12 02:22:00,
2014-01-11 20:42:00,21.0,19.0,29.42,South,173,5.0,9.0,91,0.00,,,0.00,,2014-01-12 02:42:00,
2014-01-11 20:52:00,21.0,19.0,29.41,South,188,3.0,6.0,91,0.00,,,0.00,,2014-01-12 02:52:00,
2014-01-11 21:11:00,21.0,19.0,29.41,SSE,154,1.0,6.0,90,0.00,,,0.00,,2014-01-12 03:11:00,
2014-01-11 21:22:00,22.0,20.0,29.40,SE,128,6.0,9.0,91,0.00,,,0.00,,2014-01-12 03:22:00,
2014-01-11 21:43:00,22.0,20.0,29.39,SE,146,8.0,11.0,91,0.00,,,0.00,,2014-01-12 03:43:00,
2014-01-11 21:54:00,22.0,20.0,29.39,SSE,148,9.0,13.0,90,0.00,,,0.00,,2014-01-12 03:54:00,
2014-01-11 22:02:00,-999.0,-99.9,29.38,SE,134,12.0,15.0,-999,0.00,,,0.00,,2014-01-12 04:02:00,
2014-01-11 22:13:00,22.0,20.0,29.38,SE,134,12.0,15.0,91,0.00,,,0.00,,2014-01-12 04:13:00,
2014-01-11 22:23:00,22.0,20.0,29.37,SSE,153,9.0,14.0,90,0.00,,,0.00,,2014-01-12 04:23:00,
2014-01-11 22:43:00,22.0,20.0,29.35,SSE,153,9.0,14.0,90,0.00,,,0.00,,2014-01-12 04:43:00,
2014-01-11 22:53:00,22.0,20.0,29.33,SE,143,6.0,17.0,91,0.00,,,0.00,,2014-01-12 04:53:00,
2014-01-11 23:22:00,22.0,20.0,29.31,SE,138,12.0,19.0,91,0.00,,,0.00,,2014-01-12 05:22:00,
2014-01-11 23:43:00,22.0,20.0,29.29,SE,136,8.0,22.0,91,0.00,,,0.00,,2014-01-12 05:43:00,
2014-01-11 23:53:00,22.0,20.0,29.28,SE,129,11.0,18.0,91,0.00,,,0.00,,2014-01-12 05:53:00,